Flag for U.S.A. Weather past 2 weeks in Lakeland, Florida, U.S.A.

Now
72 °F

Partly sunny.


Feels Like: 76 °F
Forecast: 64 / 75 °F
Wind: 12 mph from Northeast

Location: Lakeland Regional


UV Index: 0 (Low)

Visibility: 10 mi


Pressure: 30.09 "Hg

Humidity: 61%

Dew point: 57 °F

Location of LakelandLocation

Historic Weather in Lakeland

°F

Lakeland temperature yesterday

Maximum temperature yesterday: 86 °F (at 5:50 PM)
Minimum temperature yesterday: 64 °F (at 2:15 AM)
Average temperature yesterday: 72 °F

Past Weeks' High & Low Weather Summary

 TemperatureHumidityPressure
High90 °F (Apr 7, 2:50 PM)100% (Apr 2, 5:55 AM)30.30 "Hg (Apr 2, 5:55 AM)
Low52 °F (Apr 16, 7:50 AM)23% (Apr 2, 6:50 PM)29.75 "Hg (Apr 8, 2:54 PM)
Average68 °F73%30.05 "Hg
* Reported Apr 1 7:50 PM — Apr 16 7:50 PM, Lakeland, Weather by CustomWeather, © 2014

Note: Actual official high and low records may vary slightly from our data, if they occured in-between our weather recording intervals... More about our weather records

Advertising

Historic Weather Conditions — Data for Previous 24 hours

 ConditionsComfort  
Time TempWeatherWind HumidityBarometerVisibility
7:50 PM
Apr 16
72 °FPartly sunny.12 mph61%30.09 "Hg10 mi
6:50 PM73 °FScattered clouds.17 mph57%30.08 "Hg12 mi
5:50 PM75 °FScattered clouds.16 mph50%30.06 "Hg15 mi
4:50 PM77 °FScattered clouds.3 mph44%30.06 "Hg15 mi
3:50 PM77 °FScattered clouds.13 mph47%30.07 "Hg15 mi
2:50 PM75 °FPartly sunny.15 mph44%30.09 "Hg15 mi
1:50 PM72 °FPartly sunny.16 mph47%30.11 "Hg15 mi
12:50 PM68 °FSunny.13 mph49%30.13 "Hg15 mi
11:50 AM64 °FBroken clouds.15 mph56%30.14 "Hg15 mi
10:54 AM54 °FBroken clouds.9 mph72%30.14 "Hg15 mi
9:53 AM54 °FScattered clouds.7 mph72%30.13 "Hg15 mi
8:53 AM54 °FPartly sunny.14 mph72%30.12 "Hg15 mi
7:50 AM52 °FPassing clouds.10 mph77%30.10 "Hg10 mi
6:50 AM54 °FOvercast.16 mph77%30.07 "Hg10 mi
5:50 AM54 °FOvercast.9 mph77%30.04 "Hg10 mi
5:35 AM54 °FOvercast.13 mph77%30.04 "Hg10 mi
5:15 AM54 °FPassing clouds.9 mph77%30.03 "Hg10 mi
4:55 AM54 °FOvercast.15 mph82%30.03 "Hg10 mi
4:35 AM55 °FOvercast.9 mph82%30.02 "Hg10 mi
4:15 AM55 °FOvercast.10 mph88%30.01 "Hg10 mi
3:55 AM55 °FOvercast.10 mph88%30.01 "Hg10 mi
3:15 AM59 °FOvercast.8 mph82%30.00 "Hg10 mi
2:55 AM59 °FOvercast.12 mph82%29.99 "Hg10 mi
2:35 AM61 °FOvercast.13 mph83%29.98 "Hg10 mi
2:15 AM61 °FOvercast.13 mph88%29.97 "Hg10 mi
1:55 AM61 °FOvercast.9 mph88%29.97 "Hg10 mi
1:15 AM63 °FPassing clouds.8 mph77%29.98 "Hg10 mi
12:55 AM63 °FClear.7 mph77%29.98 "Hg10 mi
12:35 AM63 °FClear.8 mph77%29.98 "Hg10 mi
12:15 AM63 °FPassing clouds.8 mph77%29.98 "Hg10 mi
11:55 PM
Apr 15
64 °FPassing clouds.9 mph83%29.98 "Hg10 mi
11:15 PM66 °FOvercast.8 mph83%29.97 "Hg10 mi
10:55 PM66 °FOvercast.6 mph83%29.97 "Hg10 mi
10:35 PM68 °FOvercast.6 mph78%29.96 "Hg10 mi
10:15 PM68 °FMostly cloudy.6 mph78%29.96 "Hg10 mi
Weather by CustomWeather, © 2014

See weather overview